• In Russia
  • List of Countries
  • For 7 days
  • Water Temperature
  • Satellite Maps
  • Weather Map
  • Weather Widgets
  • user-avatar
    Login

    Hourly Weather Adelaide

    Today, 24 March, Sunday

    Time Temperature Precipitation Wind Pressure Humidity
    00:00 +21°C° 0 mm 1 mps 755 mmHg 83%
    01:00 +21°C° 0 mm 1 mps 754 mmHg 84%
    02:00 +21°C° 0 mm 1 mps 754 mmHg 86%
    03:00 +18°C° 0 mm 0 mps 754 mmHg 86%
    04:00 +18°C° 0 mm 0 mps 753 mmHg 86%
    05:00 +18°C° 0 mm 0 mps 753 mmHg 85%
    06:00 +18°C° 0 mm 0 mps 753 mmHg 85%
    07:00 +22°C° 0 mm 1 mps 753 mmHg 77%
    08:00 +23°C° 0 mm 2 mps 753 mmHg 69%
    09:00 +25°C° 0 mm 2 mps 752 mmHg 60%
    10:00 +25°C° 0 mm 3 mps 752 mmHg 60%
    11:00 +25°C° 0 mm 4 mps 751 mmHg 60%
    12:00 +25°C° 0 mm 4 mps 751 mmHg 59%
    13:00 +25°C° 0 mm 5 mps 750 mmHg 61%
    14:00 +24°C° 0 mm 6 mps 750 mmHg 62%
    15:00 +23°C° 0 mm 6 mps 750 mmHg 69%
    16:00 +23°C° 0 mm 7 mps 750 mmHg 67%
    17:00 +23°C° 0 mm 8 mps 750 mmHg 64%
    18:00 +23°C° 0 mm 8 mps 750 mmHg 62%
    19:00 +22°C° 0.2 mm 8 mps 751 mmHg 63%
    20:00 +21°C° 0.2 mm 9 mps 751 mmHg 65%
    21:00 +20°C° 0 mm 7 mps 751 mmHg 66%
    22:00 +20°C° 0.1 mm 8 mps 752 mmHg 65%
    23:00 +18°C° 0.1 mm 8 mps 752 mmHg 64%

    Tomorrow, 25 March, Monday

    Time Temperature Precipitation Wind Pressure Humidity
    00:00 +18°C° 0.1 mm 9 mps 752 mmHg 63%
    01:00 +17°C° 0.1 mm 8 mps 753 mmHg 62%
    02:00 +17°C° 0.1 mm 8 mps 753 mmHg 62%
    03:00 +16°C° 0.1 mm 8 mps 753 mmHg 61%
    04:00 +16°C° 0.1 mm 8 mps 754 mmHg 60%
    05:00 +15°C° 0.1 mm 8 mps 754 mmHg 60%
    06:00 +15°C° 0.1 mm 8 mps 755 mmHg 59%
    07:00 +15°C° 0 mm 8 mps 755 mmHg 57%
    08:00 +15°C° 0 mm 8 mps 756 mmHg 55%
    09:00 +15°C° 0 mm 8 mps 757 mmHg 53%
    10:00 +16°C° 0 mm 7 mps 757 mmHg 50%
    11:00 +17°C° 0 mm 7 mps 757 mmHg 47%
    12:00 +17°C° 0 mm 7 mps 758 mmHg 44%
    13:00 +17°C° 0 mm 6 mps 758 mmHg 44%
    14:00 +17°C° 0 mm 6 mps 758 mmHg 44%
    15:00 +17°C° 0 mm 6 mps 758 mmHg 44%
    16:00 +17°C° 0 mm 5 mps 758 mmHg 47%
    17:00 +16°C° 0 mm 5 mps 759 mmHg 49%
    18:00 +15°C° 0 mm 4 mps 759 mmHg 52%
    19:00 +14°C° 0 mm 4 mps 760 mmHg 54%
    20:00 +14°C° 0 mm 4 mps 761 mmHg 56%
    21:00 +13°C° 0 mm 3 mps 761 mmHg 59%
    22:00 +13°C° 0 mm 3 mps 761 mmHg 60%
    23:00 +13°C° 0 mm 3 mps 762 mmHg 61%

    Day after tomorrow, 26 March, Tuesday

    Time Temperature Precipitation Wind Pressure Humidity
    00:00 +13°C° 0 mm 3 mps 762 mmHg 63%
    01:00 +13°C° 0 mm 3 mps 762 mmHg 63%
    02:00 +13°C° 0 mm 3 mps 762 mmHg 64%
    03:00 +13°C° 0 mm 3 mps 762 mmHg 64%
    04:00 +13°C° 0 mm 3 mps 762 mmHg 65%
    05:00 +13°C° 0 mm 3 mps 763 mmHg 66%
    06:00 +14°C° 0 mm 2 mps 763 mmHg 68%
    07:00 +15°C° 0 mm 2 mps 763 mmHg 63%
    08:00 +17°C° 0 mm 3 mps 764 mmHg 58%
    09:00 +18°C° 0 mm 3 mps 764 mmHg 52%
    10:00 +19°C° 0 mm 3 mps 764 mmHg 52%
    11:00 +19°C° 0 mm 3 mps 764 mmHg 51%
    12:00 +20°C° 0 mm 3 mps 764 mmHg 50%
    13:00 +20°C° 0 mm 3 mps 763 mmHg 51%
    14:00 +20°C° 0 mm 3 mps 763 mmHg 51%
    15:00 +20°C° 0 mm 3 mps 763 mmHg 52%
    16:00 +19°C° 0 mm 3 mps 763 mmHg 55%
    17:00 +19°C° 0 mm 3 mps 763 mmHg 58%
    18:00 +18°C° 0 mm 3 mps 763 mmHg 61%
    19:00 +17°C° 0 mm 3 mps 764 mmHg 66%
    20:00 +17°C° 0 mm 3 mps 764 mmHg 70%
    21:00 +16°C° 0 mm 2 mps 765 mmHg 75%
    22:00 +16°C° 0 mm 2 mps 765 mmHg 78%
    23:00 +15°C° 0 mm 2 mps 765 mmHg 81%

    27 March, Wednesday

    Time Temperature Precipitation Wind Pressure Humidity
    00:00 +15°C° 0 mm 2 mps 764 mmHg 83%
    01:00 +15°C° 0 mm 2 mps 764 mmHg 85%
    02:00 +14°C° 0 mm 1 mps 764 mmHg 86%
    03:00 +14°C° 0 mm 1 mps 764 mmHg 87%
    04:00 +14°C° 0 mm 1 mps 764 mmHg 88%
    05:00 +14°C° 0 mm 2 mps 764 mmHg 89%
    06:00 +14°C° 0 mm 2 mps 764 mmHg 89%
    07:00 +16°C° 0 mm 1 mps 764 mmHg 78%
    08:00 +19°C° 0 mm 1 mps 764 mmHg 68%
    09:00 +21°C° 0 mm 1 mps 764 mmHg 57%
    10:00 +22°C° 0 mm 1 mps 764 mmHg 51%
    11:00 +24°C° 0 mm 1 mps 764 mmHg 44%
    12:00 +26°C° 0 mm 1 mps 763 mmHg 38%
    13:00 +25°C° 0 mm 2 mps 762 mmHg 39%
    14:00 +25°C° 0 mm 2 mps 762 mmHg 40%
    15:00 +25°C° 0 mm 3 mps 761 mmHg 41%
    16:00 +22°C° 0 mm 3 mps 761 mmHg 47%
    17:00 +21°C° 0 mm 3 mps 760 mmHg 53%
    18:00 +20°C° 0 mm 3 mps 760 mmHg 59%
    19:00 +19°C° 0 mm 3 mps 760 mmHg 64%
    20:00 +18°C° 0 mm 3 mps 761 mmHg 69%
    21:00 +17°C° 0 mm 3 mps 761 mmHg 74%
    22:00 +17°C° 0 mm 2 mps 760 mmHg 74%
    23:00 +17°C° 0 mm 2 mps 760 mmHg 74%

    28 March, Thursday

    Time Temperature Precipitation Wind Pressure Humidity
    00:00 +16°C° 0 mm 2 mps 760 mmHg 74%
    01:00 +16°C° 0 mm 1 mps 759 mmHg 72%
    02:00 +16°C° 0 mm 1 mps 759 mmHg 69%
    03:00 +16°C° 0 mm 1 mps 758 mmHg 67%
    04:00 +16°C° 0 mm 1 mps 759 mmHg 65%
    05:00 +16°C° 0 mm 1 mps 759 mmHg 63%
    06:00 +16°C° 0 mm 1 mps 759 mmHg 61%
    07:00 +19°C° 0 mm 1 mps 759 mmHg 54%
    08:00 +21°C° 0 mm 2 mps 759 mmHg 47%
    09:00 +24°C° 0 mm 2 mps 759 mmHg 39%
    10:00 +25°C° 0 mm 2 mps 759 mmHg 38%
    11:00 +25°C° 0 mm 3 mps 758 mmHg 36%
    12:00 +26°C° 0 mm 3 mps 758 mmHg 35%
    13:00 +26°C° 0 mm 3 mps 757 mmHg 37%
    14:00 +26°C° 0 mm 3 mps 756 mmHg 38%
    15:00 +25°C° 0 mm 3 mps 756 mmHg 40%
    16:00 +24°C° 0 mm 3 mps 756 mmHg 47%
    17:00 +22°C° 0 mm 3 mps 756 mmHg 54%
    18:00 +20°C° 0 mm 3 mps 756 mmHg 61%
    19:00 +19°C° 0 mm 3 mps 757 mmHg 67%
    20:00 +19°C° 0 mm 2 mps 757 mmHg 74%
    21:00 +18°C° 0 mm 2 mps 757 mmHg 80%
    22:00 +17°C° 0 mm 2 mps 757 mmHg 83%
    23:00 +17°C° 0 mm 2 mps 757 mmHg 85%

    29 March, Friday

    Time Temperature Precipitation Wind Pressure Humidity
    00:00 +18°C° 0 mm 1 mps 757 mmHg 88%
    01:00 +17°C° 0 mm 2 mps 757 mmHg 88%
    02:00 +17°C° 0 mm 2 mps 757 mmHg 89%
    03:00 +17°C° 0 mm 2 mps 757 mmHg 90%
    04:00 +17°C° 0.1 mm 3 mps 757 mmHg 87%
    05:00 +17°C° 0.1 mm 4 mps 757 mmHg 84%
    06:00 +16°C° 0.1 mm 5 mps 758 mmHg 81%
    07:00 +16°C° 0 mm 5 mps 758 mmHg 74%
    08:00 +16°C° 0 mm 5 mps 758 mmHg 67%
    09:00 +16°C° 0 mm 6 mps 759 mmHg 60%
    10:00 +17°C° 0 mm 6 mps 759 mmHg 57%
    11:00 +17°C° 0 mm 6 mps 759 mmHg 53%
    12:00 +19°C° 0 mm 6 mps 759 mmHg 50%
    13:00 +19°C° 0 mm 6 mps 759 mmHg 50%
    14:00 +19°C° 0 mm 6 mps 758 mmHg 51%
    15:00 +17°C° 0 mm 6 mps 758 mmHg 51%
    16:00 +17°C° 0 mm 6 mps 759 mmHg 53%
    17:00 +16°C° 0 mm 5 mps 759 mmHg 55%
    18:00 +15°C° 0 mm 5 mps 760 mmHg 56%
    19:00 +15°C° 0 mm 5 mps 760 mmHg 59%
    20:00 +14°C° 0 mm 5 mps 761 mmHg 62%
    21:00 +14°C° 0 mm 5 mps 761 mmHg 64%
    22:00 +13°C° 0 mm 5 mps 761 mmHg 65%
    23:00 +13°C° 0 mm 4 mps 762 mmHg 65%
    Show more